星链-31081 (STARLINK-31081 )

导读

STARLINK-31081是美国太空探索技术公司(SpaceX)星链互联网卫星星座中的一员,于2023年12月23日发射入轨。该卫星属于星链项目扩容卫星,旨在为全球提供高速低延迟宽带互联网服务,依托星链星座低轨布局优势,可覆盖偏远地区,也服务于商业、海事、航空及特殊领域通信场景。

Basic Information
目录编号:
58632
目录名称:
STARLINK-31081
国际标识:
2023-203Q
轨道中心:
EARTH
卫星名称:
星链-31081
卫星全名:
星链-31081 (STARLINK-31081 )
卫星状态:
在轨 (已飞行986 天)
发射日期:
2023-12-23 UTC
国别 :
美国 (US)
星等 :
--
Orbit Information
数据来源 国际轨道数据
星历时间: 2026-09-04T11:31:21+0800
5小时前
查看轨道信息
半长轴: 6861.177km
偏心率: 0.0000641
轨道倾角: 43.001°
近地点辐角 233.339°
升交点赤经 142.736°
平近点角 126.740°
近地点: 482.6km
远地点: 483.48km
周期: 94.267分钟
每日圈数: 15.275832
Detailed Information
固有亮度:
5
最大亮度:
0.3
卫星平台:
Starlink v2.0 mini
覆盖范围:
全球
运营商:
太空探索技术公司
运营商所在国:
美国
制造商(研发单位):
太空探索技术公司
制造商所在国:
美国
使用方式:
暂无
Satellite Introduction
星链(Starlink)计划是由太空探索技术公司(SpaceX)提出的一个巨型低轨卫星互联网星座项目,计划在2019年至2024年间在太空搭建由约1.2万颗卫星组成的“星链”网络,其中1584颗将部署在地球上空550千米处的近地轨道,并从2020年开始工作。该卫星仍在工作。
2D Orbit Map
3D Orbit Map
Orbit Altitude Analysis Chart
Orbit Inclination Analysis Chart
Orbit Comprehensive Analysis Chart
View Comprehensive Chart
Conjunction Data List
Event ID Objects TCA Miss Dist (km) Collision Risk Probability Collision Risk Index (CRI) Action
CDM_260903-043505-321305-863221
2026-09-03T
04:35:55+0000
0.603 km
远距离
1.255932E-4 高风险 0.77
CDM_260829-192005-504705-863222
2026-08-29T
19:20:38+0000
1.569 km
极远距离
5.391194E-6 低风险 0.5